Regional Weather Roundup
Issued by NWS

Home | Current Version | Previous Version | Text Only | Print | Product List | Glossary Off
Versions: 1 2 3 4 5 6 7 8 9 10 11 12 13 14 15 16 17 18 19 20 21 22 23 24 25 26 27 28 29 30 31 32 33 34 35 36 37 38 39 40 41 42 43 44 45 46 47 48 49 50

000
ASUS43 KBIS 192002
RWRND

NORTH DAKOTA REGIONAL WEATHER ROUNDUP
NATIONAL WEATHER SERVICE BISMARCK ND
300 PM CDT SAT AUG 19 2017

NOTE: "FAIR" INDICATES FEW OR NO CLOUDS BELOW 12,000 FEET WITH NO
SIGNIFICANT WEATHER AND/OR OBSTRUCTIONS TO VISIBILITY.


NDZ001>003-009>011-017-192100-
NORTHWEST NORTH DAKOTA

CITY           SKY/WX    TMP DP  RH WIND       PRES   REMARKS
WILLISTON      SUNNY     83  52  34 NW22G28   29.77R
MINOT          MOSUNNY   88  56  33 SW15G21   29.68S
MINOT AFB        N/A     89  53  29 W16       29.66S
$$

NDZ018>021-031>035-040>046-192100-
SOUTHWEST NORTH DAKOTA

CITY           SKY/WX    TMP DP  RH WIND       PRES   REMARKS
BISMARCK       SUNNY     82  62  50 S9        29.74F
DICKINSON      MOSUNNY   87  46  24 NW18G29   29.79S
GARRISON         N/A     85  59  41 W12G23    29.72S
HETTINGER ARPT MOSUNNY   84  44  24 NW13G25   29.84R
$$

NDZ004>008-012>016-024-026-027-054-192100-
NORTHEAST NORTH DAKOTA

CITY           SKY/WX    TMP DP  RH WIND       PRES   REMARKS
GRAND FORKS    MOSUNNY   88  59  37 S17       29.75F
GRND FRKS AFB  SUNNY     85  57  37 SW17      29.76F
DEVILS LAKE    SUNNY     83  60  45 S17G25    29.73F
$$

NDZ022-023-025-028>030-036>039-047>053-192100-
SOUTHEAST NORTH DAKOTA

CITY           SKY/WX    TMP DP  RH WIND       PRES   REMARKS
FARGO          SUNNY     81  61  50 S17G26    29.80F
JAMESTOWN      SUNNY     81  60  48 S20G28    29.77F
$$





USA.gov is the U.S. government's official web portal to all federal, state and local government web resources and services.